This is the latest recevied weather packets stored in our database for station/object KG5EO. If no packets are shown the sender has not sent any weather packets the latest 10 day(s).
| Time | Temp. | Humidity | Pressure | Rain* | Wind** | Luminosity | Snow |
|---|---|---|---|---|---|---|---|
| 1777994161 | 20° C | 56% | 41 hPa | 0 mm | - | - | - |
| 1777993860 | 20° C | 53% | 41 hPa | 0 mm | - | - | - |
| 1777993560 | 20° C | 52% | 41 hPa | 0 mm | - | - | - |
| 1777993260 | 20.56° C | 54% | 41 hPa | 0 mm | - | - | - |
| 1777992961 | 20° C | 58% | 41 hPa | 0 mm | - | - | - |
| 1777992659 | 20° C | 57% | 41 hPa | 0 mm | - | - | - |
| 1777992359 | 20° C | 58% | 41 hPa | 0 mm | - | - | - |
| 1777992060 | 20° C | 57% | 41 hPa | 0 mm | - | - | - |
| 1777991759 | 20° C | 57% | 41 hPa | 0 mm | - | - | - |
| 1777991459 | 20° C | 57% | 41 hPa | 0 mm | - | - | - |
| 1777991159 | 19.44° C | 57% | 41 hPa | 0 mm | - | - | - |
| 1777990859 | 19.44° C | 60% | 41 hPa | 0 mm | - | - | - |
| 1777990558 | 18.89° C | 60% | 41 hPa | 0 mm | - | - | - |
| 1777989958 | 18.33° C | 61% | 41 hPa | 0 mm | - | - | - |
| 1777989659 | 18.33° C | 62% | 41 hPa | 0 mm | - | - | - |
| 1777989358 | 18.33° C | 65% | 41 hPa | 0 mm | - | - | - |
| 1777989058 | 18.33° C | 65% | 41 hPa | 0 mm | - | - | - |
| 1777988757 | 18.33° C | 66% | 41 hPa | 0 mm | - | - | - |
| 1777988457 | 17.78° C | 67% | 41 hPa | 0 mm | - | - | - |
| 1777988157 | 17.78° C | 67% | 41 hPa | 0 mm | - | - | - |
| 1777987857 | 17.78° C | 68% | 41 hPa | 0 mm | - | - | - |
| 1777987559 | 17.78° C | 69% | 41 hPa | 0 mm | - | - | - |
| 1777987257 | 17.78° C | 69% | 41 hPa | 0 mm | - | - | - |
| 1777986956 | 17.78° C | 70% | 41 hPa | 0 mm | - | - | - |
| 1777986656 | 17.78° C | 70% | 41 hPa | 0 mm | - | - | - |
* Rain latest hour (hover to see other rain measurements)
** Current wind speed in m/s (hover to see current wind gust speed)